{"data":{"norad_id":67913,"epoch":"2026-05-25T03:08:52.135872Z","epoch_age_seconds":67131,"freshness":"FRESH","line1":"1 67913U 26036K   26145.13115898  .00012157  00000+0  45063-3 0  9993","line2":"2 67913  43.0031 173.4836 0001471 271.0674  89.0010 15.27575296 15419","mean_motion":15.27575296,"eccentricity":0.0001471,"inclination_deg":43.0031,"raan_deg":173.4836,"arg_perigee_deg":271.0674,"mean_anomaly_deg":89.001,"bstar":0.00045063,"rev_number":1541,"period_min":94.267038997729,"perigee_km":482.05389899735,"apogee_km":484.07246409076,"semimajor_km":6861.2001815441,"source":"CELESTRAK","updated_at":"2026-05-25T13:38:21.739481Z"}}